Weather History for Little Rock, AR

Change the Weather History Date:

Wednesday, March 13, 2013

  Actual Average Record
Temperature  
Mean Temperature 48 °F 52 °F  
Max Temperature 59 °F 63 °F 85 °F (1967)
Min Temperature 36 °F 42 °F 21 °F (1948)
Degree Days  
Heating Degree Days 17 13  
Month to date heating degree days 232 189  
Since 1 July heating degree days 2518 2702  
Cooling Degree Days 0 0  
Month to date cooling degree days 0 0  
Year to date cooling degree days 5 2  
Moisture  
Dew Point 22 °F    
Average Humidity 40    
Maximum Humidity 59    
Minimum Humidity 21    
Precipitation  
Precipitation 0.00 in 0.15 in 1.97 in (1897)
Month to date precipitation 0.89 1.89  
Year to date precipitation 10.45 9.10  
Snow  
Snow 0.00 in 0.00 in 4.60 in (1924)
Month to date snowfall 0.0 0.3  
Since 1 July snowfall 10.6 3.4  
Snow Depth 0.00 in    
Sea Level Pressure  
Sea Level Pressure 30.40 in    
Wind  
Wind Speed 7 mph (NNW)    
Max Wind Speed 16 mph    
Max Gust Speed 21 mph    
Visibility 10 miles    
Events      
T = Trace of Precipitation, MM = Missing Value Source: NWS Daily Summary

Daily Weather History Graph

Daily Weather History Graph

Search for Another Location

Airport:

Trip Planner

Search our weather history database for the weather conditions in past years. The results will help you decide how hot, cold, wet, or windy it might be!

Date:

Astronomy

Mar. 13, 2013 Rise Set
Actual Time 7:21 AM CDT 7:15 PM CDT
Civil Twilight 6:56 AM CDT 7:40 PM CDT
Nautical Twilight 6:27 AM CDT 8:09 PM CDT
Astronomical Twilight 5:58 AM CDT 8:39 PM CDT
Moon 8:08 AM CDT (3/13) 9:24 PM CDT (3/13)
Length of Visible Light 12h 43m
Length of Day
11h 53m
Waxing Crescent, 4% of the Moon is Illuminated
Mar 13
Waxing Crescent
Mar 19
First Quarter
Mar 27
Full
Apr 2
Last Quarter
Apr 10
New

Hourly Weather History & Observations

Time (CDT) Temp. Windchill Dew Point Humidity Pressure Visibility Wind Dir Wind Speed Gust Speed Precip Events Conditions
12:53 AM 48.9 °F - 28.9 °F 46% 30.31 in 10.0 mi NNW 11.5 mph - N/A   Clear
1:53 AM 46.9 °F - 27.0 °F 46% 30.32 in 10.0 mi NNW 9.2 mph - N/A   Clear
2:53 AM 45.0 °F 41.8 °F 25.0 °F 46% 30.34 in 10.0 mi NW 5.8 mph - N/A   Clear
3:53 AM 39.9 °F 34.5 °F 25.0 °F 55% 30.35 in 10.0 mi NNW 8.1 mph - N/A   Clear
4:53 AM 37.0 °F 30.4 °F 24.1 °F 59% 30.37 in 10.0 mi North 9.2 mph - N/A   Clear
5:53 AM 42.1 °F 39.2 °F 23.0 °F 47% 30.39 in 10.0 mi NW 4.6 mph - N/A   Clear
6:53 AM 39.9 °F 36.7 °F 21.0 °F 47% 30.40 in 10.0 mi NNW 4.6 mph - N/A   Clear
7:53 AM 37.0 °F 32.4 °F 23.0 °F 57% 30.42 in 10.0 mi NNW 5.8 mph - N/A   Clear
8:53 AM 45.0 °F 39.7 °F 21.9 °F 40% 30.45 in 10.0 mi NNW 10.4 mph - N/A   Clear
9:53 AM 46.9 °F - 19.0 °F 33% 30.46 in 10.0 mi NNW 12.7 mph - N/A   Clear
10:53 AM 48.9 °F - 19.9 °F 32% 30.48 in 10.0 mi West 11.5 mph 17.3 mph N/A   Clear
11:53 AM 52.0 °F - 21.0 °F 30% 30.48 in 10.0 mi WNW 13.8 mph 18.4 mph N/A   Partly Cloudy
12:53 PM 54.0 °F - 17.1 °F 23% 30.46 in 10.0 mi North 12.7 mph 19.6 mph N/A   Partly Cloudy
1:53 PM 55.9 °F - 18.0 °F 23% 30.43 in 10.0 mi NW 12.7 mph 17.3 mph N/A   Partly Cloudy
2:53 PM 57.0 °F - 18.0 °F 22% 30.42 in 10.0 mi NNW 11.5 mph 18.4 mph N/A   Scattered Clouds
3:53 PM 59.0 °F - 19.9 °F 22% 30.41 in 10.0 mi WNW 8.1 mph - N/A   Scattered Clouds
4:53 PM 57.9 °F - 18.0 °F 21% 30.40 in 10.0 mi West 6.9 mph - N/A   Partly Cloudy
5:53 PM 57.9 °F - 19.0 °F 22% 30.38 in 10.0 mi NW 5.8 mph - N/A   Partly Cloudy
6:53 PM 55.9 °F - 18.0 °F 23% 30.39 in 10.0 mi NNW 3.5 mph - N/A   Scattered Clouds
7:53 PM 55.0 °F - 19.0 °F 24% 30.40 in 10.0 mi NW 4.6 mph - N/A   Mostly Cloudy
8:53 PM 54.0 °F - 18.0 °F 24% 30.40 in 10.0 mi ENE 3.5 mph - N/A   Mostly Cloudy
9:53 PM 52.0 °F - 21.9 °F 31% 30.40 in 10.0 mi Calm Calm - N/A   Mostly Cloudy
10:53 PM 50.0 °F - 27.0 °F 41% 30.42 in 10.0 mi Calm Calm - N/A   Mostly Cloudy
11:53 PM 46.0 °F - 28.0 °F 50% 30.42 in 10.0 mi Calm Calm - N/A   Partly Cloudy